TimeEST,TemperatureF,Dew PointF,Humidity,Sea Level PressureIn,VisibilityMPH,Wind Direction,Wind SpeedMPH,Gust SpeedMPH,PrecipitationIn,Events,Conditions,WindDirDegrees,DateUTC
12:15 AM,37.4,28.4,70,30.26,10.0,NNE,9.2,-,N/A,,Clear,30,2013-03-08 05:15:00
12:35 AM,35.6,28.4,75,30.26,10.0,NNE,8.1,-,N/A,,Clear,20,2013-03-08 05:35:00
12:55 AM,35.6,28.4,75,30.25,10.0,NNE,6.9,-,N/A,,Clear,30,2013-03-08 05:55:00
1:15 AM,33.8,28.4,81,30.26,10.0,North,6.9,-,N/A,,Clear,10,2013-03-08 06:15:00
1:35 AM,33.8,28.4,81,30.25,10.0,NNE,6.9,-,N/A,,Clear,20,2013-03-08 06:35:00
1:55 AM,33.8,26.6,75,30.25,10.0,NNE,5.8,-,N/A,,Clear,30,2013-03-08 06:55:00
2:15 AM,33.8,26.6,75,30.26,10.0,North,6.9,-,N/A,,Clear,10,2013-03-08 07:15:00
2:35 AM,32.0,26.6,80,30.26,10.0,North,5.8,-,N/A,,Clear,10,2013-03-08 07:35:00
2:55 AM,33.8,26.6,75,30.26,10.0,North,8.1,-,N/A,,Clear,10,2013-03-08 07:55:00
3:15 AM,33.8,26.6,75,30.26,10.0,North,5.8,-,N/A,,Clear,350,2013-03-08 08:15:00
3:55 AM,33.8,26.6,75,30.25,10.0,North,4.6,-,N/A,,Clear,350,2013-03-08 08:55:00
4:15 AM,33.8,26.6,75,30.25,10.0,North,3.5,-,N/A,,Clear,350,2013-03-08 09:15:00
4:35 AM,32.0,26.6,80,30.26,10.0,NNW,4.6,-,N/A,,Clear,330,2013-03-08 09:35:00
4:55 AM,33.8,26.6,75,30.27,10.0,North,5.8,-,N/A,,Clear,350,2013-03-08 09:55:00
5:15 AM,32.0,26.6,80,30.27,10.0,North,5.8,-,N/A,,Clear,350,2013-03-08 10:15:00
5:35 AM,32.0,26.6,80,30.27,10.0,North,5.8,-,N/A,,Clear,350,2013-03-08 10:35:00
5:55 AM,32.0,26.6,80,30.27,10.0,North,6.9,-,N/A,,Clear,350,2013-03-08 10:55:00
6:15 AM,32.0,26.6,80,30.27,10.0,North,6.9,-,N/A,,Clear,350,2013-03-08 11:15:00
6:35 AM,32.0,26.6,80,30.28,10.0,North,5.8,-,N/A,,Clear,350,2013-03-08 11:35:00
6:55 AM,32.0,26.6,80,30.28,10.0,North,4.6,-,N/A,,Clear,360,2013-03-08 11:55:00
7:15 AM,32.0,26.6,80,30.29,10.0,North,5.8,-,N/A,,Clear,350,2013-03-08 12:15:00
7:35 AM,33.8,26.6,75,30.30,10.0,North,5.8,-,N/A,,Clear,350,2013-03-08 12:35:00
7:55 AM,35.6,26.6,70,30.31,10.0,North,6.9,-,N/A,,Clear,350,2013-03-08 12:55:00
8:15 AM,37.4,28.4,70,30.32,10.0,North,8.1,-,N/A,,Clear,360,2013-03-08 13:15:00
8:35 AM,39.2,26.6,61,30.32,10.0,North,9.2,-,N/A,,Clear,10,2013-03-08 13:35:00
8:55 AM,41.0,28.4,61,30.32,10.0,North,13.8,-,N/A,,Clear,10,2013-03-08 13:55:00
9:15 AM,42.8,28.4,57,30.33,10.0,NE,11.5,-,N/A,,Clear,40,2013-03-08 14:15:00
9:55 AM,44.6,24.8,46,30.33,10.0,NNE,11.5,-,N/A,,Clear,30,2013-03-08 14:55:00
10:15 AM,46.4,26.6,46,30.32,10.0,North,11.5,17.3,N/A,,Clear,360,2013-03-08 15:15:00
10:35 AM,46.4,26.6,46,30.32,10.0,North,12.7,-,N/A,,Clear,360,2013-03-08 15:35:00
10:55 AM,46.4,24.8,43,30.32,10.0,North,10.4,-,N/A,,Clear,360,2013-03-08 15:55:00
11:15 AM,48.2,26.6,43,30.32,10.0,NNE,8.1,-,N/A,,Clear,20,2013-03-08 16:15:00
11:35 AM,50.0,26.6,40,30.31,10.0,North,10.4,16.1,N/A,,Clear,350,2013-03-08 16:35:00
11:55 AM,50.0,24.8,37,30.30,10.0,NNW,9.2,-,N/A,,Clear,340,2013-03-08 16:55:00
12:15 PM,51.8,24.8,35,30.29,10.0,North,12.7,16.1,N/A,,Clear,360,2013-03-08 17:15:00
12:35 PM,53.6,26.6,35,30.28,10.0,North,8.1,16.1,N/A,,Clear,350,2013-03-08 17:35:00
12:55 PM,51.8,24.8,35,30.27,10.0,NNE,12.7,16.1,N/A,,Clear,20,2013-03-08 17:55:00
1:15 PM,53.6,24.8,33,30.26,10.0,North,10.4,-,N/A,,Clear,350,2013-03-08 18:15:00
1:35 PM,53.6,24.8,33,30.25,10.0,NNW,10.4,17.3,N/A,,Clear,340,2013-03-08 18:35:00
1:55 PM,55.4,24.8,31,30.24,10.0,NW,9.2,20.7,N/A,,Clear,310,2013-03-08 18:55:00
2:15 PM,55.4,23.0,29,30.24,10.0,NNW,10.4,-,N/A,,Clear,340,2013-03-08 19:15:00
2:35 PM,55.4,23.0,29,30.23,10.0,North,10.4,17.3,N/A,,Clear,350,2013-03-08 19:35:00
2:55 PM,57.2,24.8,29,30.23,10.0,NW,8.1,-,N/A,,Clear,310,2013-03-08 19:55:00
3:15 PM,59.0,23.0,25,30.22,10.0,North,8.1,-,N/A,,Clear,350,2013-03-08 20:15:00
3:35 PM,59.0,23.0,25,30.22,10.0,North,6.9,-,N/A,,Clear,350,2013-03-08 20:35:00
3:55 PM,59.0,23.0,25,30.22,10.0,NW,4.6,-,N/A,,Clear,310,2013-03-08 20:55:00
4:15 PM,59.0,23.0,25,30.21,10.0,North,12.7,-,N/A,,Clear,360,2013-03-08 21:15:00
4:35 PM,59.0,23.0,25,30.20,10.0,North,8.1,21.9,N/A,,Clear,360,2013-03-08 21:35:00
4:55 PM,59.0,23.0,25,30.20,10.0,NNE,8.1,16.1,N/A,,Clear,20,2013-03-08 21:55:00
5:15 PM,57.2,23.0,27,30.19,10.0,North,11.5,-,N/A,,Clear,360,2013-03-08 22:15:00
5:55 PM,55.4,23.0,29,30.21,10.0,North,4.6,-,N/A,,Clear,360,2013-03-08 22:55:00
6:15 PM,53.6,24.8,33,30.21,10.0,North,3.5,-,N/A,,Clear,360,2013-03-08 23:15:00
6:35 PM,51.8,24.8,35,30.22,10.0,North,3.5,-,N/A,,Clear,350,2013-03-08 23:35:00
6:55 PM,48.2,26.6,43,30.22,10.0,Calm,Calm,-,N/A,,Clear,0,2013-03-08 23:55:00
7:55 PM,48.2,23.0,37,30.25,10.0,North,4.6,-,N/A,,Clear,350,2013-03-09 00:55:00
8:15 PM,50.0,23.0,35,30.25,10.0,North,4.6,-,N/A,,Clear,350,2013-03-09 01:15:00
8:35 PM,48.2,24.8,40,30.27,10.0,North,5.8,-,N/A,,Clear,360,2013-03-09 01:35:00
8:55 PM,46.4,24.8,43,30.26,10.0,North,8.1,-,N/A,,Clear,350,2013-03-09 01:55:00
9:15 PM,50.0,24.8,37,30.27,10.0,NNW,6.9,-,N/A,,Clear,340,2013-03-09 02:15:00
9:35 PM,44.6,26.6,49,30.29,10.0,North,8.1,-,N/A,,Clear,350,2013-03-09 02:35:00
9:55 PM,46.4,24.8,43,30.29,10.0,NNW,6.9,-,N/A,,Clear,340,2013-03-09 02:55:00
10:15 PM,42.8,26.6,53,30.29,10.0,North,6.9,-,N/A,,Clear,360,2013-03-09 03:15:00
10:55 PM,44.6,26.6,49,30.30,10.0,North,8.1,-,N/A,,Clear,360,2013-03-09 03:55:00
11:15 PM,42.8,28.4,57,30.29,10.0,NNE,8.1,-,N/A,,Clear,20,2013-03-09 04:15:00
11:35 PM,41.0,28.4,61,30.30,10.0,North,8.1,-,N/A,,Clear,10,2013-03-09 04:35:00
11:55 PM,41.0,28.4,61,30.29,10.0,North,8.1,-,N/A,,Clear,10,2013-03-09 04:55:00